| time (UTC) | temp C | wind direction | speed KPH | gust KPH | rain 1hr cm | rain 24hr cm | rain mn cm | humidity % | barometer mb |
| 20260509043224 | 7 | 0 | 3.2 | 0.0 | 0.00 | 0.00 | 0.00 | 93 | 1019.0 |
| 20260509042400 | 7 | 40 | 3.2 | 0.0 | 0.00 | 0.00 | 0.00 | 93 | |
| 20260509040232 | 7 | 20 | 1.6 | 0.0 | 0.00 | 0.00 | 0.00 | 93 | 1019.0 |
| 20260509033224 | 7 | 30 | 3.2 | 0.0 | 0.00 | 0.00 | 0.00 | 93 | 1019.0 |
| 20260509032156 | 7 | 50 | 3.2 | 0.0 | 0.00 | 0.00 | 0.00 | 93 | |
| 20260509030234 | 7 | 40 | 3.2 | 0.0 | 0.00 | 0.00 | 0.00 | 93 | 1019.0 |
| 20260509023224 | 7 | 30 | 3.2 | 0.0 | 0.00 | 0.00 | 0.00 | 87 | 1020.0 |
| 20260509022156 | 8 | 360 | 3.2 | 0.0 | 0.00 | 0.00 | 0.00 | 81 | |
| 20260509020225 | 7 | 30 | 3.2 | 0.0 | 0.00 | 0.00 | 0.00 | 87 | 1020.0 |
| 20260509013223 | 8 | 20 | 4.8 | 0.0 | 0.00 | 0.00 | 0.00 | 87 | 1019.0 |
| 20260509012258 | 10 | 10 | 11.3 | 0.0 | 0.00 | 0.00 | 0.00 | 87 | |
| 20260509010230 | 8 | 10 | 4.8 | 0.0 | 0.00 | 0.00 | 0.00 | 87 | 1019.0 |
| 20260509003223 | 8 | 30 | 9.7 | 0.0 | 0.00 | 0.00 | 0.00 | 87 | 1019.0 |
| 20260509002155 | 10 | 10 | 11.3 | 0.0 | 0.00 | 0.00 | 0.00 | 81 | |
| 20260509000241 | 10 | 20 | 9.7 | 0.0 | 0.00 | 0.00 | 0.00 | 81 | 1020.0 |
| 20260508233223 | 10 | 20 | 11.3 | 0.0 | 0.00 | 0.00 | 0.00 | 81 | 1020.0 |
| 20260508232156 | 10 | 20 | 11.3 | 0.0 | 0.00 | 0.00 | 0.00 | 87 | |
| 20260508230230 | 10 | 20 | 11.3 | 0.0 | 0.00 | 0.00 | 0.00 | 81 | 1020.0 |
| 20260508223223 | 10 | 10 | 14.5 | 0.0 | 0.00 | 0.00 | 0.00 | 87 | 1019.0 |
| 20260508222356 | 10 | 10 | 14.5 | 0.0 | 0.00 | 0.00 | 0.00 | 87 | |
| 20260508220233 | 10 | 20 | 14.5 | 0.0 | 0.00 | 0.00 | 0.00 | 81 | 1019.0 |
| 20260508213224 | 11 | 20 | 12.9 | 0.0 | 0.00 | 0.00 | 0.00 | 81 | 1019.0 |
| 20260508212156 | 11 | 10 | 11.3 | 0.0 | 0.00 | 0.00 | 0.00 | 81 | |
| 20260508210239 | 11 | 20 | 9.7 | 0.0 | 0.00 | 0.00 | 0.00 | 81 | 1019.0 |
| 20260508203225 | 11 | 30 | 9.7 | 0.0 | 0.00 | 0.00 | 0.00 | 81 | 1019.0 |
| 20260508202157 | 11 | 10 | 11.3 | 0.0 | 0.00 | 0.00 | 0.00 | 81 | |
| 20260508200232 | 11 | 20 | 11.3 | 0.0 | 0.00 | 0.00 | 0.00 | 81 | 1019.0 |
| 20260508193223 | 11 | 20 | 11.3 | 0.0 | 0.00 | 0.00 | 0.00 | 87 | 1019.0 |
| 20260508192256 | 12 | 20 | 11.3 | 0.0 | 0.00 | 0.00 | 0.00 | 81 | |
| 20260508190239 | 11 | 20 | 11.3 | 0.0 | 0.00 | 0.00 | 0.00 | 81 | 1019.0 |
| 20260508183231 | 12 | 20 | 9.7 | 0.0 | 0.00 | 0.00 | 0.00 | 76 | 1018.0 |
| 20260508182138 | 12 | 20 | 14.5 | 0.0 | 0.00 | 0.00 | 0.00 | 76 | |
| 20260508180234 | 12 | 20 | 12.9 | 0.0 | 0.00 | 0.00 | 0.00 | 76 | 1018.0 |
| 20260508173231 | 12 | 10 | 14.5 | 0.0 | 0.00 | 0.00 | 0.00 | 76 | 1018.0 |
| 20260508172156 | 12 | 360 | 14.5 | 0.0 | 0.00 | 0.00 | 0.00 | 81 | |
| 20260508170232 | 12 | 10 | 12.9 | 0.0 | 0.00 | 0.00 | 0.00 | 76 | 1018.0 |
| 20260508163223 | 12 | 10 | 16.1 | 0.0 | 0.00 | 0.00 | 0.00 | 71 | 1018.0 |
| 20260508162356 | 13 | 350 | 14.5 | 0.0 | 0.00 | 0.00 | 0.00 | 67 | |
| 20260508160241 | 13 | 10 | 16.1 | 0.0 | 0.00 | 0.00 | 0.00 | 67 | 1018.0 |
| 20260508153230 | 15 | 360 | 20.9 | 0.0 | 0.00 | 0.00 | 0.00 | 67 | 1018.0 |
| 20260508152158 | 13 | 20 | 19.3 | 0.0 | 0.00 | 0.00 | 0.00 | 71 | |
| 20260508150241 | 13 | 20 | 16.1 | 0.0 | 0.00 | 0.00 | 0.00 | 71 | 1018.0 |
| 20260508143231 | 13 | 30 | 16.1 | 0.0 | 0.00 | 0.00 | 0.00 | 71 | 1018.0 |
| 20260508142139 | 15 | 20 | 19.3 | 0.0 | 0.00 | 0.00 | 0.00 | 72 | |
| 20260508140235 | 15 | 10 | 16.1 | 0.0 | 0.00 | 0.00 | 0.00 | 72 | 1018.0 |
| 20260508133231 | 15 | 10 | 19.3 | 0.0 | 0.00 | 0.00 | 0.00 | 72 | 1018.0 |
| 20260508132255 | 15 | 360 | 19.3 | 0.0 | 0.00 | 0.00 | 0.00 | 72 | |
| 20260508130238 | 13 | 360 | 16.1 | 0.0 | 0.00 | 0.00 | 0.00 | 71 | 1018.0 |
| 20260508123230 | 15 | 60 | 12.9 | 0.0 | 0.00 | 0.00 | 0.00 | 67 | 1018.0 |
| 20260508122157 | 13 | 40 | 14.5 | 0.0 | 0.00 | 0.00 | 0.00 | 76 | |
| 20260508120232 | 12 | 50 | 11.3 | 0.0 | 0.00 | 0.00 | 0.00 | 76 | 1018.0 |
| 20260508113231 | 13 | 70 | 9.7 | 0.0 | 0.00 | 0.00 | 0.00 | 76 | 1018.0 |
| 20260508112158 | 13 | 60 | 11.3 | 0.0 | 0.00 | 0.00 | 0.00 | 76 | |
| 20260508110231 | 12 | 40 | 12.9 | 0.0 | 0.00 | 0.00 | 0.00 | 82 | 1018.0 |
| 20260508103231 | 12 | 30 | 9.7 | 0.0 | 0.00 | 0.00 | 0.00 | 82 | 1018.0 |
| 20260508102358 | 12 | 10 | 8.0 | 0.0 | 0.00 | 0.00 | 0.00 | 76 | |
| 20260508100239 | 12 | 10 | 9.7 | 0.0 | 0.00 | 0.00 | 0.00 | 81 | 1018.0 |
| 20260508093231 | 12 | 20 | 8.0 | 0.0 | 0.00 | 0.00 | 0.00 | 81 | 1018.0 |
| 20260508092156 | 12 | 10 | 11.3 | 0.0 | 0.00 | 0.00 | 0.00 | 87 | |
| 20260508090240 | 12 | 360 | 9.7 | 0.0 | 0.00 | 0.00 | 0.00 | 81 | 1018.0 |
| 20260508083231 | 12 | 50 | 8.0 | 0.0 | 0.00 | 0.00 | 0.00 | 81 | 1018.0 |
| 20260508082138 | 11 | 40 | 11.3 | 0.0 | 0.00 | 0.00 | 0.00 | 93 | |
| 20260508080239 | 11 | 30 | 11.3 | 0.0 | 0.00 | 0.00 | 0.00 | 87 | 1018.0 |
| 20260508073231 | 10 | 20 | 11.3 | 0.0 | 0.00 | 0.00 | 0.00 | 93 | 1017.0 |
| 20260508072259 | 10 | 360 | 11.3 | 0.0 | 0.00 | 0.00 | 0.00 | 99 | |
| 20260508070233 | 10 | 350 | 9.7 | 0.0 | 0.00 | 0.00 | 0.00 | 93 | 1017.0 |
| 20260508063224 | 10 | 350 | 11.3 | 0.0 | 0.00 | 0.00 | 0.00 | 93 | 1017.0 |
| 20260508062157 | 11 | 360 | 8.0 | 0.0 | 0.00 | 0.00 | 0.00 | 93 | |
| 20260508060227 | 10 | 360 | 8.0 | 0.0 | 0.00 | 0.00 | 0.00 | 100 | 1017.0 |
| 20260508054303 | 10 | 350 | 8.0 | 0.0 | 0.00 | 0.00 | 0.00 | 93 | 1017.0 |
| 20260508053224 | 10 | 350 | 8.0 | 0.0 | 0.00 | 0.00 | 0.00 | 100 | 1016.0 |
| 20260508052156 | 10 | 0 | 3.2 | 0.0 | 0.00 | 0.00 | 0.00 | 99 | |
| 20260508050232 | 10 | 0 | 3.2 | 0.0 | 0.00 | 0.00 | 0.00 | 93 | 1016.0 |
| 20260508044603 | 10 | 40 | 8.0 | 0.0 | 0.00 | 0.00 | 0.00 | 93 | 1016.0 |